マクノート彗星

278P/McNaught (2020)

English version
Home page
Updated on August 15, 2020

---------------------------------------------------------------------

・ プロフィール

・ 写真集

・ 軌道要素

Epoch 2020 Sept. 28.0 TT = JDT 2459120.5
T 2020 Sept. 12.06342 TT                                Rudenko
q   2.0870291            (2000.0)            P               Q
n   0.13883587     Peri.  238.08670     -0.28498349     +0.95803080
a   3.6937564      Node    15.44730     -0.83544418     -0.23239969
e   0.4349846      Incl.    6.68502     -0.46991216     -0.16783137
P   7.10
From 469 observations 2006 May 22-2020 July 31, mean residual 0".6.

・ 光度変化

        m1 = 6.0 + 5 logΔ + 30.0 log r

---------------------------------------------------------------------

軌道要素はM.P.E.C. 2020-P19に掲載されたものです。
光度グラフはComet for Windowsで作成したものです。

---------------------------------------------------------------------

Copyright(C) Seiichi Yoshida (comet@aerith.net). All rights reserved.